Vorticity
nan nan nan nan nan nan nan nan nan nan nan nan nan nan nan nan nan nan nan nan nan nan nan nan nan nan nan nan nan nan nan nan nan nan nan nan nan nan nan nan nan nan nan nan nan nan nan nan nan
nan 3 5 7 9 3 4 8 7 6 0 7 9 5 7 5 5 9 10 9 6 7 9 8 7 5 5 5 6 8 9 8 7 6 6 6 5 4 3 6 8 9 7 5 3 5 5 3 nan
nan 5 9 4 7 5 5 10 7 2 6 12 9 5 5 8 9 7 11 11 5 6 7 8 8 6 5 5 6 8 6 5 8 7 6 5 6 6 4 4 6 7 7 5 5 5 4 4 nan
nan 6 6 9 5 6 6 5 5 1 9 6 5 6 8 8 7 9 14 9 5 6 7 8 7 7 6 5 4 6 7 7 7 7 7 5 4 5 5 3 6 6 5 6 7 6 4 5 nan
nan 8 6 4 5 6 6 2 2 1 8 5 6 8 7 8 7 12 10 8 5 5 8 8 6 7 8 6 4 4 6 6 7 7 7 6 5 5 5 5 5 6 6 8 8 6 6 5 nan
nan 7 7 7 6 5 3 10 5 7 2 6 9 8 8 8 9 9 9 7 6 6 7 9 7 6 7 6 6 5 5 7 6 7 8 11 9 7 5 4 3 4 7 8 7 6 6 6 nan
nan 6 7 8 7 6 10 11 7 7 5 9 9 7 7 9 12 10 8 6 6 6 6 7 9 7 5 7 7 6 7 6 8 10 10 5 9 14 10 8 4 5 10 8 6 6 6 5 nan
nan 6 8 8 7 4 12 5 11 12 5 9 8 4 6 11 14 9 7 6 6 6 6 6 7 8 7 7 7 6 7 11 12 11 13 12 5 5 7 5 5 7 9 7 5 6 5 5 nan
nan 7 5 8 6 5 6 6 3 6 6 4 3 5 7 13 13 6 3 3 6 7 8 7 6 7 7 7 9 9 9 10 7 9 3 1 4 6 3 3 12 11 8 7 5 4 5 4 nan
nan 5 11 9 4 4 6 4 2 0 3 -1 3 8 8 13 8 4 2 4 3 5 7 7 8 6 6 7 9 9 9 3 3 7 4 4 7 6 6 6 7 11 11 7 5 3 3 2 nan
nan 6 8 7 4 4 3 1 2 2 5 1 3 2 4 7 7 5 3 3 6 6 8 8 8 8 6 5 6 9 10 8 9 7 6 5 4 5 5 6 9 14 7 6 6 2 3 5 nan
nan 10 5 3 5 4 3 4 5 7 6 4 7 4 4 7 8 8 6 7 7 6 6 6 7 7 6 6 7 9 9 8 8 9 6 4 6 8 6 7 8 8 9 11 5 4 8 8 nan
nan 8 9 7 7 7 8 8 9 9 8 5 10 9 5 9 8 10 10 8 8 7 6 5 6 6 6 6 6 8 9 8 9 8 6 6 7 7 7 8 6 8 9 10 9 7 7 7 nan
nan 5 5 11 11 11 10 9 9 7 5 9 4 4 8 11 12 10 13 10 7 7 8 7 6 6 7 7 5 6 9 9 9 8 8 6 7 9 8 8 7 7 8 10 10 7 7 7 nan
nan 7 10 14 14 10 14 16 10 8 9 9 4 8 8 7 14 15 10 10 9 9 9 8 7 6 6 6 6 6 8 9 9 10 11 8 7 9 8 7 8 8 8 11 9 7 7 7 nan
nan 9 11 11 10 10 9 6 11 16 15 10 10 7 8 9 11 12 12 14 12 11 9 6 7 7 6 7 7 6 6 6 8 8 12 12 7 6 6 8 8 9 7 8 9 8 7 7 nan
nan 9 8 5 6 8 1 -2 5 6 11 12 12 8 8 9 10 15 14 13 11 9 9 7 7 8 7 7 9 9 7 6 6 6 8 9 9 6 6 8 10 8 7 8 9 9 7 7 nan
nan 5 2 3 3 4 5 4 2 4 8 8 8 9 7 8 7 13 16 14 12 10 9 7 8 10 6 6 7 8 8 8 7 8 9 6 7 8 5 8 10 7 7 8 10 10 9 8 nan
nan 5 5 6 4 7 11 6 6 8 3 5 7 7 7 7 9 12 16 15 10 10 9 8 6 6 5 7 7 8 9 8 7 10 10 8 8 9 7 10 9 7 9 10 8 9 8 7 nan
nan 6 9 10 6 5 7 9 12 10 6 7 10 10 7 7 8 11 14 11 10 8 7 7 7 6 4 7 6 8 10 9 10 11 14 16 11 11 13 11 10 8 9 11 7 5 4 10 nan
nan 10 7 5 8 12 14 16 18 13 11 10 10 8 9 10 9 11 12 9 10 9 8 6 7 6 6 7 4 7 8 9 10 10 11 16 20 15 13 10 9 9 8 10 9 7 5 6 nan
nan 13 8 7 9 9 10 16 17 15 16 13 8 7 9 12 11 11 12 13 10 9 8 8 8 7 9 7 6 6 5 6 8 11 11 9 13 14 12 9 10 8 9 10 8 8 7 7 nan
nan 10 10 9 7 10 6 7 8 15 18 15 15 12 11 11 14 17 13 12 14 11 8 8 9 8 9 7 5 4 5 7 9 11 11 8 6 9 10 9 9 8 9 11 10 8 7 7 nan
nan 9 10 11 12 13 18 9 -1 6 11 14 18 15 10 15 20 20 16 14 11 8 8 9 9 8 10 9 7 7 6 6 6 7 6 9 9 9 9 7 6 8 10 10 9 9 7 7 nan
nan 7 10 11 10 8 18 11 -0 5 13 14 12 12 10 13 21 20 12 9 11 7 5 9 9 7 8 8 9 9 9 7 7 6 6 6 7 9 10 9 8 8 9 9 9 10 9 8 nan
nan 6 7 8 7 9 10 8 7 7 9 9 9 10 10 12 17 17 13 11 12 10 7 10 8 6 7 8 7 9 8 7 9 9 8 7 9 10 11 9 8 10 8 8 9 7 9 9 nan
nan 9 6 12 9 9 8 15 1 -5 5 7 9 9 9 13 20 26 21 14 12 11 11 11 8 8 8 9 8 9 9 8 8 9 8 10 11 9 12 13 11 10 7 7 5 6 9 8 nan
nan 10 8 9 8 9 9 8 4 3 5 8 10 9 9 13 19 27 24 15 14 12 10 11 11 10 8 8 8 9 10 8 8 8 9 8 10 11 9 10 12 10 8 7 6 5 5 4 nan
nan 6 8 8 10 8 10 10 8 4 6 8 10 10 10 11 17 20 18 16 13 12 12 10 9 9 9 8 8 9 10 9 8 8 9 8 7 9 10 9 9 9 9 8 8 7 7 5 nan
nan nan nan nan nan nan nan nan nan nan nan nan nan nan nan nan nan nan nan nan nan nan nan nan nan nan nan nan nan nan nan nan nan nan nan nan nan nan nan nan nan nan nan nan nan nan nan nan nan
CAPE
0 0 0 0 0 0 0 0 0 0 0 0 0 0 0 0 0 0 70 1358 1244 1562 1463 1415 1098 1252 1622 1685 1787 2007 2250 2196 2195 2181 2172 2162 2117 1959 1777 1752 1783 1798 1979 1800 1653 1789 1450 1239 1275
0 0 0 0 0 0 0 0 0 0 0 0 0 0 0 0 98 237 811 1294 1325 1503 1506 1566 1252 1373 1659 1593 1834 2035 2423 2445 2337 2316 2310 2224 2092 1913 1866 1851 1807 1885 2068 2053 1577 1547 1282 1290 1250
0 0 0 0 0 0 0 0 0 0 0 0 0 0 0 0 508 373 690 1410 1610 1451 1313 1494 1476 1433 1537 1641 1712 1928 1848 2339 2293 2282 2349 2267 2076 2023 1950 1796 1856 1985 2125 2120 1709 1441 1523 1273 993
0 0 0 0 0 0 0 0 0 0 0 0 0 0 0 0 598 677 789 1495 1794 1602 1393 1420 1428 1250 1464 1734 1701 1880 1869 1803 2013 2189 2253 2248 2158 2035 1685 1473 1908 2027 2169 2124 1830 1506 1256 984 798
0 0 0 0 0 0 0 0 0 0 0 0 0 0 0 0 310 728 1374 1542 1916 1764 1727 1782 1450 1420 1523 1590 1776 1760 1805 1633 1591 2125 2003 1738 2019 1630 1534 1302 1784 1947 1886 1833 1479 1342 1070 837 617
0 0 0 0 0 0 0 0 0 0 0 0 0 0 0 32 675 1089 1690 1814 1974 1481 1502 1419 1563 1583 1443 1480 1730 1595 1590 1647 1787 1957 1980 1866 1428 1200 1025 979 1073 1109 1392 1374 1276 1049 892 680 439
0 0 0 0 0 0 0 0 0 0 0 0 0 0 0 39 618 1319 1793 1781 1805 1900 1600 1081 1511 1812 1537 1398 1637 1561 1332 1411 1384 1574 1578 781 141 379 483 341 624 1025 1137 997 1007 799 624 508 231
0 0 0 0 0 0 0 0 0 0 0 0 0 0 0 14 396 1204 1627 1636 1754 1617 1882 1659 1492 1589 2157 2165 1411 1260 1178 899 770 623 257 142 62 71 132 292 438 610 1147 871 854 611 450 232 63
0 0 0 0 0 0 0 0 0 0 0 0 0 0 0 29 435 1060 1272 1097 1203 1339 1532 1655 1302 1628 1966 1792 1644 1071 893 469 395 454 91 77 142 89 96 213 267 301 573 508 446 399 186 64 4
0 0 0 0 0 0 0 0 0 0 0 0 0 0 23 249 698 1154 1288 1356 1221 855 870 1179 873 1178 1176 893 1152 1502 1210 886 181 193 103 107 104 161 68 75 144 214 266 238 248 183 37 38 67
0 0 0 0 0 0 0 0 0 0 0 0 0 0 0 71 602 978 1132 1138 1246 1039 454 1030 835 622 752 829 751 578 579 474 25 7 11 54 83 74 14 78 165 201 191 285 294 144 150 132 74
0 0 0 0 0 0 0 0 0 0 0 0 0 0 0 0 20 804 983 1043 1172 1108 1090 746 669 566 581 642 273 283 204 215 20 2 9 65 107 115 182 248 194 92 32 142 320 224 93 22 1
0 0 0 0 0 0 0 0 0 0 0 0 0 0 0 0 0 2 687 1015 1003 1074 1068 599 508 582 510 381 194 200 232 108 75 7 2 99 79 208 210 218 223 47 3 46 204 80 16 0 0
0 0 0 0 0 0 0 0 0 0 0 0 0 0 0 0 0 0 523 924 916 931 946 504 411 453 439 345 177 105 119 132 23 13 12 8 51 237 261 252 259 122 0 18 126 58 1 0 0
0 0 0 0 0 0 0 0 0 0 0 0 0 0 0 0 0 0 367 839 958 824 803 377 386 562 246 83 139 32 3 2 3 5 13 2 11 59 158 225 206 156 1 0 24 6 0 0 0
0 0 0 0 0 0 0 0 0 0 0 0 0 0 0 0 0 0 422 681 833 802 774 461 500 350 156 55 5 3 3 1 2 2 2 3 9 61 184 171 141 52 1 0 3 0 0 1 0
0 0 0 0 0 0 0 0 0 0 0 0 0 0 0 0 0 0 497 584 649 797 659 462 420 266 10 6 5 3 6 6 2 4 4 2 2 22 98 120 106 29 0 0 0 0 1 4 5
0 0 0 0 0 0 0 0 0 0 0 0 0 0 0 0 0 0 177 524 587 674 606 281 223 165 4 4 4 3 9 14 13 7 2 3 8 8 93 32 1 1 1 1 0 0 4 17 12
0 0 0 0 0 0 0 0 0 0 0 0 0 0 0 0 0 0 0 435 521 500 382 94 109 1 2 2 4 7 7 17 23 24 26 9 6 24 4 2 0 0 0 0 0 0 0 4 16
0 0 0 0 0 0 0 0 0 0 0 0 0 0 0 0 0 0 6 366 436 382 263 41 43 4 2 2 2 2 11 17 21 28 31 44 2 12 21 0 0 1 0 5 0 0 0 0 1
0 0 0 0 0 0 0 0 0 0 0 0 0 0 0 0 0 0 0 253 396 396 217 30 7 4 2 4 11 3 9 16 15 8 5 2 1 6 2 0 0 0 2 1 0 0 0 0 2
0 0 0 0 0 1 0 0 0 0 0 0 0 0 0 0 0 0 0 147 326 471 281 15 1 3 2 13 8 3 4 14 14 15 11 7 4 2 1 0 0 0 0 0 0 0 0 0 0
0 0 0 0 4 10 2 3 0 0 0 0 0 0 0 0 0 0 0 47 233 359 167 1 1 3 4 5 2 5 9 12 8 3 4 7 4 6 3 2 0 0 0 0 0 0 0 0 18
0 0 0 0 5 10 0 0 0 0 0 0 0 0 0 0 0 0 2 82 161 217 17 3 2 2 1 4 3 2 26 11 3 7 2 1 3 4 3 1 0 0 0 0 0 0 0 0 12
0 0 0 0 12 1 0 0 0 0 0 0 0 0 0 0 0 13 93 123 144 98 2 1 0 1 3 1 1 3 17 11 1 1 5 3 2 4 1 1 0 0 0 0 0 0 1 13 37
0 0 0 0 8 11 0 0 0 0 0 0 0 0 0 0 2 1 112 144 187 82 3 4 32 1 4 3 0 1 6 13 6 10 12 14 16 8 1 1 0 0 0 0 0 0 18 39 33
5 6 1 1 4 26 0 0 6 0 0 0 0 0 0 0 0 2 6 135 127 50 11 55 4 2 3 4 2 3 6 3 2 4 9 14 19 7 2 2 2 1 0 0 0 0 0 0 4
25 10 63 49 6 12 0 1 9 2 1 3 3 4 2 2 4 0 3 51 81 34 10 3 2 1 3 5 1 1 5 4 2 0 1 4 7 32 4 2 1 2 2 0 0 0 0 0 1
23 61 15 18 57 16 1 3 59 18 9 23 5 6 6 5 4 41 42 41 47 24 5 3 1 1 1 2 1 1 2 0 0 0 1 0 1 2 4 1 5 4 2 1 10 6 9 6 25
24 18 15 24 10 32 1 1 106 30 4 18 0 1 4 6 3 2 10 6 7 8 5 3 2 2 1 0 2 3 3 1 0 2 0 0 0 5 0 0 8 10 2 8 7 6 11 0 8